Tracking 22779 objects as of 10-Apr-2021
HD Live streaming from Space Station
objects crossing your sky now

SL-8 R/B

Track SL-8 R/B now!
10-day predictions


NORAD ID: 28910
Int'l Code: 2005-048C
Perigee: 1,437.8 km
Apogee: 1,464.5 km
Inclination: 82.5 °
Period: 114.7 minutes
Semi major axis: 7822 km
RCS: 8.4237 m2 (large)
Launch date: December 21, 2005
Source: Commonwealth of Independent States (former USSR) (CIS)
Launch site: PLESETSK MISSILE AND SPACE COMPLEX (PKMTR)

Note: This is a ROCKET BODY
aabbcc
Your satellite tracking list
Your tracking list is empty




NASA's NSSDC Master Catalog

Two Line Element Set (TLE):
1 28910U 05048C   21100.46537640  .00000006  00000-0 -28093-4 0  9999
2 28910  82.4640  82.5125 0017069   4.9822 173.5825 12.54923869700868
Source of the keplerian elements: AFSPC